Startpagina
METAR-TAF:

METAR-TAF

Vliegvelden :

Militair vliegvled

Meppen, Duitsland

breedte: 52-43-24N, lengte: 007-19-35E, hoogte: 21 m

Actueel weer

Dit bericht is 47 minuten geleden gemaakt, om 02:20 UTC
Wind 3 kt uit het zuidzuidwesten
Temperatuur 15°C
Vochtigheid 94%
Druk 1016 hPa
Zicht: 6000 m

METAR: ETWM 170220Z AUTO 20003KT 6000 // ////// 15/14 Q1016 ///

Tijdstip: 05:07 (03:07 UTC)


TAF: ontbreekt

Waarnemingen en weersverwachtingen van meer dan 4000 vliegvelden (METAR en TAF).

De beschikbare stations zijn de gele en rode punten op de kaart.

Ga met uw muis naar het station om de naam te zien.

Klik dan om waarnemingen en weersverwachtingen te zien.

kaart wijzigen: klik op de groene knoppen met een zwart kruis om in te zoomen, op de groene knop met een streepje om uit te zoomen of op de groene pijlen voor aangrenzende kaarten.


METAR-TAF: